Presure
186 196 183 191 195 184 206 216 194 211 212 204 198 199 199 203 184 196 202 191 223 236 242 233 230 232 246
154 196 215 205 223 201 211 219 201 199 203 102 206 184 197 197 211 184 196 226 233 156 233 234 228 250 245
197 209 198 208 172 198 215 209 206 194 178 213 183 196 205 210 196 246 235 231 212 232 229 231 244 253 265
220 175 189 210 168 199 192 198 196 179 209 138 194 186 188 224 214 227 230 233 231 237 260 263 261 239 202
194 194 201 214 194 180 168 186 200 191 195 163 163 199 189 240 240 240 258 251 255 267 263 219 197 204 197
168 182 205 172 183 178 201 192 191 167 182 197 213 242 242 255 257 263 223 216 208 203 202 195 194 199 201
184 174 212 176 171 204 224 196 180 153 210 247 243 242 250 251 227 215 210 208 200 201 210 247 253 247 242
193 186 170 197 145 201 172 181 222 242 254 240 248 245 233 211 209 206 202 204 203 208 226 219 235 249 251
170 213 201 204 220 244 234 253 235 256 246 242 208 204 195 194 201 201 200 227 231 234 239 229 237 262 266
178 203 207 226 241 247 242 270 211 204 204 200 194 192 189 196 196 202 226 218 232 229 226 224 250 273 279
226 198 214 237 244 212 206 204 195 196 194 192 194 199 199 202 215 220 219 225 225 225 238 225 243 264 262
234 245 235 210 205 197 192 193 198 204 211 210 211 210 220 221 214 217 224 219 238 218 226 242 248 268 251
267 229 204 204 189 194 194 201 205 202 215 219 221 220 221 225 220 222 237 232 232 241 219 240 261 248 250
210 203 192 198 191 193 194 200 203 204 215 223 228 229 218 230 228 229 235 237 240 255 229 252 263 282 287
196 194 191 194 195 202 201 204 215 217 226 230 230 230 228 230 230 240 245 253 251 273 253 268 273 294 295
187 200 199 203 203 196 204 211 211 218 214 220 229 236 240 233 241 251 254 267 253 269 278 300 329 361 358
184 206 203 204 202 204 209 203 214 215 225 216 233 245 251 245 243 253 271 266 282 300 339 351 387 379 376
Wind_Speed
112 110 110 110 106 108 97 91 105 92 88 94 97 96 96 92 91 97 97 98 91 96 98 98 101 103 104
90 108 91 101 85 100 93 86 92 94 94 60 92 88 96 96 98 94 96 98 94 96 101 101 106 104 98
102 94 97 95 97 89 87 88 89 94 83 98 87 102 101 96 100 109 106 104 99 108 108 106 103 94 87
85 100 96 93 86 92 93 95 95 92 98 76 104 97 101 113 104 106 105 104 106 109 98 92 88 82 79
92 92 96 91 92 100 86 103 99 108 112 80 92 117 110 107 103 102 99 93 85 86 83 81 80 83 85
91 101 89 94 107 102 96 104 108 94 113 120 120 112 107 102 99 92 78 78 80 80 81 82 84 87 90
105 101 88 103 97 98 99 104 110 84 117 110 102 102 98 92 84 82 78 78 80 83 89 103 103 104 104
103 97 101 98 74 105 95 107 109 110 92 86 90 89 86 88 90 90 88 90 91 95 102 102 104 104 104
104 96 103 105 110 118 100 105 91 79 77 76 78 82 88 92 94 94 95 103 106 106 107 107 108 106 106
108 104 108 112 115 107 100 98 77 78 81 83 83 84 87 96 99 101 106 106 108 107 108 110 113 110 106
104 98 109 105 100 83 81 83 81 83 84 88 89 91 94 95 104 108 107 109 110 109 116 112 115 112 105
115 108 92 86 87 87 88 90 92 94 96 96 99 101 102 103 103 108 112 111 118 109 113 121 120 113 109
112 77 83 86 86 92 92 96 99 98 102 103 104 105 106 110 107 112 117 117 120 121 110 112 115 112 110
81 82 85 90 91 96 98 102 104 105 106 108 109 111 108 116 115 115 117 116 116 123 108 116 119 119 116
86 87 89 94 98 100 102 105 108 110 111 112 113 115 117 119 120 126 127 129 125 127 119 121 123 123 121
89 97 99 101 103 102 107 110 112 113 112 117 118 123 125 124 128 129 130 133 127 130 132 127 116 107 101
92 100 102 105 105 107 111 109 115 116 121 115 123 127 126 125 126 134 133 131 132 130 123 110 91 89 86
Wind_Direction
286 287 288 289 290 293 288 289 292 292 292 291 294 297 298 298 300 298 295 298 300 306 308 307 306 309 306
287 287 287 285 293 289 291 295 291 292 293 304 296 299 299 298 297 300 300 305 303 302 308 309 307 306 304
283 287 288 289 292 296 297 293 294 295 294 296 298 302 300 304 305 308 307 311 305 307 304 302 302 302 302
292 286 291 295 294 294 296 300 298 302 299 301 300 301 303 308 306 308 308 304 303 301 301 302 302 303 306
287 288 292 294 295 301 298 300 298 299 298 296 301 304 306 305 304 302 302 302 305 307 305 307 306 305 304
293 289 286 299 297 300 293 292 296 294 301 300 301 303 301 307 306 302 300 299 301 303 302 303 305 303 301
286 293 291 297 298 290 302 292 297 298 301 302 301 305 304 301 301 300 298 300 299 302 304 308 307 307 304
284 289 297 300 290 297 292 295 299 301 302 299 300 299 303 305 306 307 306 307 306 308 308 308 308 307 305
289 293 287 294 304 306 302 305 304 299 298 299 305 305 306 304 304 306 306 306 307 308 308 306 307 307 305
286 296 302 305 304 304 304 304 302 303 305 304 303 301 301 303 304 304 306 306 308 307 306 306 308 307 304
301 300 300 300 300 296 300 301 301 303 301 299 299 301 302 302 304 304 305 306 306 307 308 305 307 307 305
300 297 295 294 299 301 301 301 300 300 302 303 304 302 303 304 303 302 305 305 306 304 305 307 306 303 303
293 291 291 293 297 298 298 300 301 301 303 303 302 302 303 302 302 302 304 303 303 304 301 303 303 301 300
286 290 293 296 296 297 298 300 301 301 300 301 302 301 301 302 302 302 302 302 302 302 299 302 302 302 300
293 294 294 294 294 296 297 297 299 300 303 302 302 302 302 302 303 303 303 303 303 304 302 303 301 300 300
292 293 293 293 294 296 297 299 300 301 302 304 303 303 303 304 303 304 304 305 303 303 304 303 302 302 302
289 290 291 292 294 296 297 299 300 301 301 302 303 303 301 303 304 304 304 304 305 305 305 304 303 300 301